Voltar ao catálogo

STARLINK-11608

AtivoComunicaçõesVLEO
NORAD 63275·PAYLOAD·🇺🇸 United States

Lançado Mar 15, 2025 de Cape Canaveral Space Force Station

Loading…

Próximas Passagens (próximas 24 horas)

TLE

AtualizadoSource: CelesTrak SupGP

Época: Sep 15, 2026, 02:31 UTC

1 63275C 25053L   26258.10534722 -.00075657  00000+0 -58742-3 0  2583
2 63275  43.0012  50.3058 0001788 273.5697  19.3849 15.70883846    14

Acompanhe STARLINK-11608 em tempo real com AllMySat

Download on the App Store